Location: Home
(42.5358°N, 72.7383°W)
Time: 07:04:55
(UTC-05:00)

Explorer 11/Cluster Stage 4 - Pass Details

Date: 05 December 2021
Orbit: 467 x 1255 km, 28.8° (Epoch: 25 January)

Event Time Altitude Azimuth Distance (km) Brightness Sun altitude
Rises 06:51:43 0° 253° (WSW) 4,050 9.8 -3.0°
Reaches altitude 10° 06:57:31 10° 220° (SW) 3,191 9.6 -2.1°
Maximum altitude 06:59:18 11° 208° (SSW) 3,144 9.7 -1.8°
Drops below altitude 10° 07:01:06 10° 195° (SSW) 3,217 9.9 -1.5°
Sets 07:07:05 0° 162° (SSE) 4,159 11.1 -0.6°
